Date,TemperatureHighF,TemperatureAvgF,TemperatureLowF,DewpointHighF,DewpointAvgF,DewpointLowF,HumidityHigh,HumidityAvg,HumidityLow,PressureMaxIn,PressureMinIn,WindSpeedMaxMPH,WindSpeedAvgMPH,GustSpeedMaxMPH,PrecipitationSumIn
2013-5-1,84.8,70.2,52.0,59.8,55.7,49.2,91,63,39,30.16,30.00,13,1,16,0.00
2013-5-2,81.7,69.6,57.3,59.6,55.8,53.3,87,64,40,30.17,30.06,13,1,15,0.00
2013-5-3,79.1,70.0,60.2,60.4,53.9,45.8,83,59,35,30.07,29.93,18,2,19,0.00
2013-5-4,73.3,64.8,57.7,49.5,45.0,39.0,67,50,31,30.01,29.95,14,2,17,0.00
2013-5-5,73.5,62.4,51.6,49.8,45.2,41.3,76,55,35,30.02,29.95,10,1,12,0.00
2013-5-6,76.5,65.4,53.3,52.3,47.3,42.2,71,53,38,30.00,29.92,8,1,9,0.00
2013-5-7,75.5,63.5,52.1,55.9,50.2,45.3,78,63,47,30.00,29.93,7,0,9,0.00
2013-5-8,80.0,65.6,52.5,56.3,52.2,48.8,88,65,38,29.99,29.92,10,0,11,0.00
2013-5-9,79.8,65.9,52.4,58.3,52.7,44.4,91,66,30,29.96,29.88,15,1,18,0.01
2013-5-10,68.8,61.2,46.9,60.1,56.0,42.9,92,83,68,29.89,29.74,15,2,20,0.13
2013-5-11,54.1,47.6,41.8,49.4,42.5,34.2,89,82,65,29.97,29.80,21,1,29,0.04
2013-5-12,48.8,42.6,36.8,34.4,31.7,28.0,88,66,47,30.12,29.96,13,2,20,0.00
2013-5-13,58.6,46.2,34.5,34.2,30.4,24.9,92,58,29,30.18,30.10,15,0,15,0.00
2013-5-14,84.2,64.7,46.3,60.4,45.4,30.5,71,51,33,30.10,29.69,16,1,19,0.00
2013-5-15,84.0,75.4,66.6,62.2,56.6,49.9,75,54,32,29.77,29.63,18,3,25,0.01
2013-5-16,84.3,70.0,53.7,52.8,47.7,41.9,84,50,24,29.94,29.77,8,0,8,0.00
2013-5-17,85.7,68.4,53.4,54.3,46.8,39.8,64,47,31,30.07,29.94,10,1,14,0.00
2013-5-18,82.0,68.4,56.0,61.2,51.4,39.5,69,55,46,30.08,29.96,6,0,9,0.00
2013-5-19,90.3,73.1,56.4,66.0,57.9,48.1,77,60,42,29.99,29.82,6,0,7,0.00
2013-5-20,88.7,77.2,67.3,70.6,66.4,62.8,89,71,50,29.87,29.76,19,1,19,0.00
2013-5-21,86.0,76.6,68.3,67.3,63.3,59.6,83,65,43,29.80,29.67,20,2,22,0.00
2013-5-22,77.7,69.9,64.3,64.9,62.7,60.3,90,78,56,29.72,29.61,19,1,19,0.15
2013-5-23,65.0,57.6,49.2,60.7,53.6,44.9,92,87,79,30.15,29.70,12,1,14,0.13
2013-5-24,63.2,52.0,40.4,45.2,39.4,35.1,86,64,36,30.34,30.15,6,0,9,0.01
2013-5-25,69.8,56.5,42.9,46.4,41.6,36.3,90,61,33,30.37,30.22,7,0,8,0.00
2013-5-26,71.8,60.3,45.4,43.8,39.8,34.4,77,50,30,30.32,30.17,7,0,8,0.00
2013-5-27,61.5,55.2,50.3,53.4,46.8,34.3,92,77,37,30.20,29.92,9,1,12,0.17
2013-5-28,79.2,69.5,55.7,69.8,63.9,53.4,94,83,70,29.93,29.80,19,2,20,0.06
2013-5-29,85.0,75.9,67.4,69.9,64.8,61.0,85,69,52,29.96,29.84,18,2,20,0.02
2013-5-30,87.5,76.9,67.9,70.6,66.0,61.5,83,70,52,30.02,29.89,15,1,19,0.01
2013-5-31,75.3,72.6,63.6,68.8,66.5,60.9,92,81,71,29.95,29.82,12,1,18,0.66